Time,TemperatureF,DewpointF,PressureIn,WindDirection,WindDirectionDegrees,WindSpeedMPH,WindSpeedGustMPH,Humidity,HourlyPrecipIn,Conditions,Clouds,dailyrainin,SoftwareType,DateUTC
2013-06-16 00:01:00,58.0,49.0,29.82,WNW,286,7.0,-999.0,73,-99.99,,,-99.99,,2013-06-16 06:01:00,
2013-06-16 00:11:00,56.0,50.0,29.83,West,269,2.0,-999.0,81,-99.99,,,-99.99,,2013-06-16 06:11:00,
2013-06-16 00:22:00,56.0,50.0,29.83,West,269,2.0,-999.0,81,-99.99,,,-99.99,,2013-06-16 06:22:00,
2013-06-16 00:33:00,56.0,50.0,29.83,WSW,251,2.0,-999.0,81,-99.99,,,-99.99,,2013-06-16 06:33:00,
2013-06-16 00:43:00,55.0,50.0,29.83,West,259,3.0,-999.0,82,-99.99,,,-99.99,,2013-06-16 06:43:00,
2013-06-16 00:52:00,55.0,50.0,29.83,West,259,3.0,-999.0,82,-99.99,,,-99.99,,2013-06-16 06:52:00,
2013-06-16 01:01:00,54.0,48.0,29.83,West,267,3.0,-999.0,80,-99.99,,,-99.99,,2013-06-16 07:01:00,
2013-06-16 01:11:00,55.0,49.0,29.83,WNW,288,6.0,-999.0,79,-99.99,,,-99.99,,2013-06-16 07:11:00,
2013-06-16 01:22:00,55.0,49.0,29.83,WNW,288,6.0,-999.0,79,-99.99,,,-99.99,,2013-06-16 07:22:00,
2013-06-16 01:32:00,55.0,49.0,29.83,WNW,288,8.0,-999.0,79,-99.99,,,-99.99,,2013-06-16 07:32:00,
2013-06-16 01:43:00,55.0,48.0,29.83,WNW,295,9.0,-999.0,77,-99.99,,,-99.99,,2013-06-16 07:43:00,
2013-06-16 01:53:00,55.0,48.0,29.83,WNW,295,9.0,-999.0,77,-99.99,,,-99.99,,2013-06-16 07:53:00,
2013-06-16 02:02:00,55.0,48.0,29.84,WNW,284,10.0,-999.0,77,-99.99,,,-99.99,,2013-06-16 08:02:00,
2013-06-16 02:11:00,55.0,48.0,29.85,West,277,10.0,-999.0,76,-99.99,,,-99.99,,2013-06-16 08:11:00,
2013-06-16 02:22:00,55.0,48.0,29.85,West,277,10.0,-999.0,76,-99.99,,,-99.99,,2013-06-16 08:22:00,
2013-06-16 02:33:00,53.0,47.0,29.85,WNW,283,9.0,-999.0,80,-99.99,,,-99.99,,2013-06-16 08:33:00,
2013-06-16 02:43:00,53.0,47.0,29.86,West,271,9.0,-999.0,81,-99.99,,,-99.99,,2013-06-16 08:43:00,
2013-06-16 02:54:00,53.0,47.0,29.86,West,271,9.0,-999.0,81,-99.99,,,-99.99,,2013-06-16 08:54:00,
2013-06-16 03:01:00,53.0,48.0,29.86,West,261,6.0,-999.0,82,-99.99,,,-99.99,,2013-06-16 09:01:00,
2013-06-16 03:11:00,52.0,47.0,29.87,WSW,256,0.0,-999.0,84,-99.99,,,-99.99,,2013-06-16 09:11:00,
2013-06-16 03:22:00,52.0,47.0,29.87,WSW,256,0.0,-999.0,84,-99.99,,,-99.99,,2013-06-16 09:22:00,
2013-06-16 03:33:00,53.0,48.0,29.87,WSW,257,2.0,-999.0,84,-99.99,,,-99.99,,2013-06-16 09:33:00,
2013-06-16 03:42:00,53.0,48.0,29.87,West,267,3.0,-999.0,82,-99.99,,,-99.99,,2013-06-16 09:42:00,
2013-06-16 03:52:00,53.0,48.0,29.87,West,267,3.0,-999.0,82,-99.99,,,-99.99,,2013-06-16 09:52:00,
2013-06-16 04:01:00,52.0,47.0,29.87,WNW,295,4.0,-999.0,84,-99.99,,,-99.99,,2013-06-16 10:01:00,
2013-06-16 04:12:00,51.0,47.0,29.87,WNW,296,5.0,-999.0,85,-99.99,,,-99.99,,2013-06-16 10:12:00,
2013-06-16 04:22:00,51.0,47.0,29.87,WNW,296,5.0,-999.0,85,-99.99,,,-99.99,,2013-06-16 10:22:00,
2013-06-16 04:33:00,51.0,47.0,29.87,WNW,296,0.0,-999.0,86,-99.99,,,-99.99,,2013-06-16 10:33:00,
2013-06-16 04:43:00,51.0,47.0,29.88,WNW,296,2.0,-999.0,86,-99.99,,,-99.99,,2013-06-16 10:43:00,
2013-06-16 04:53:00,51.0,47.0,29.88,WNW,296,2.0,-999.0,86,-99.99,,,-99.99,,2013-06-16 10:53:00,
2013-06-16 05:02:00,51.0,47.0,29.88,WNW,297,3.0,-999.0,85,-99.99,,,-99.99,,2013-06-16 11:02:00,
2013-06-16 05:11:00,50.0,46.0,29.88,WNW,292,4.0,-999.0,87,-99.99,,,-99.99,,2013-06-16 11:11:00,
2013-06-16 05:22:00,50.0,46.0,29.88,WNW,292,4.0,-999.0,87,-99.99,,,-99.99,,2013-06-16 11:22:00,
2013-06-16 05:33:00,50.0,47.0,29.89,WNW,299,6.0,-999.0,88,-99.99,,,-99.99,,2013-06-16 11:33:00,
2013-06-16 05:43:00,50.0,46.0,29.89,WNW,291,8.0,-999.0,87,-99.99,,,-99.99,,2013-06-16 11:43:00,
2013-06-16 05:52:00,50.0,46.0,29.89,WNW,291,8.0,-999.0,87,-99.99,,,-99.99,,2013-06-16 11:52:00,
2013-06-16 06:02:00,51.0,47.0,29.89,West,279,9.0,-999.0,86,-99.99,,,-99.99,,2013-06-16 12:02:00,
2013-06-16 06:11:00,51.0,47.0,29.90,West,281,9.0,-999.0,87,-99.99,,,-99.99,,2013-06-16 12:11:00,
2013-06-16 06:22:00,51.0,47.0,29.90,West,281,9.0,-999.0,87,-99.99,,,-99.99,,2013-06-16 12:22:00,
2013-06-16 06:32:00,51.0,48.0,29.90,West,269,7.0,-999.0,88,-99.99,,,-99.99,,2013-06-16 12:32:00,
2013-06-16 06:42:00,52.0,49.0,29.90,West,270,4.0,-999.0,88,-99.99,,,-99.99,,2013-06-16 12:42:00,
2013-06-16 06:53:00,52.0,49.0,29.90,West,270,4.0,-999.0,88,-99.99,,,-99.99,,2013-06-16 12:53:00,
2013-06-16 07:01:00,53.0,49.0,29.91,West,269,5.0,-999.0,87,-99.99,,,-99.99,,2013-06-16 13:01:00,
2013-06-16 07:11:00,55.0,51.0,29.91,West,265,7.0,-999.0,85,-99.99,,,-99.99,,2013-06-16 13:11:00,
2013-06-16 07:22:00,55.0,51.0,29.91,West,265,7.0,-999.0,85,-99.99,,,-99.99,,2013-06-16 13:22:00,
2013-06-16 07:34:00,56.0,51.0,29.91,WSW,238,8.0,-999.0,82,-99.99,,,-99.99,,2013-06-16 13:34:00,
2013-06-16 07:42:00,56.0,50.0,29.91,West,267,10.0,-999.0,81,-99.99,,,-99.99,,2013-06-16 13:42:00,
2013-06-16 07:53:00,56.0,50.0,29.91,West,267,10.0,-999.0,81,-99.99,,,-99.99,,2013-06-16 13:53:00,
2013-06-16 08:02:00,58.0,52.0,29.91,SW,228,9.0,-999.0,80,-99.99,,,-99.99,,2013-06-16 14:02:00,
2013-06-16 08:12:00,58.0,52.0,29.91,SW,228,9.0,-999.0,80,-99.99,,,-99.99,,2013-06-16 14:12:00,
2013-06-16 08:22:00,58.0,51.0,29.91,WSW,238,13.0,-999.0,77,-99.99,,,-99.99,,2013-06-16 14:22:00,
2013-06-16 08:34:00,59.0,51.0,29.92,WNW,288,14.0,-999.0,75,-99.99,,,-99.99,,2013-06-16 14:34:00,
2013-06-16 08:43:00,59.0,51.0,29.92,WNW,288,14.0,-999.0,75,-99.99,,,-99.99,,2013-06-16 14:43:00,
2013-06-16 08:52:00,60.0,52.0,29.92,West,265,16.0,-999.0,75,-99.99,,,-99.99,,2013-06-16 14:52:00,
2013-06-16 09:02:00,60.0,52.0,29.92,SW,223,12.0,-999.0,74,-99.99,,,-99.99,,2013-06-16 15:02:00,
2013-06-16 09:12:00,60.0,52.0,29.92,SW,223,12.0,-999.0,74,-99.99,,,-99.99,,2013-06-16 15:12:00,
2013-06-16 09:23:00,61.0,52.0,29.92,WSW,239,13.0,-999.0,71,-99.99,,,-99.99,,2013-06-16 15:23:00,
2013-06-16 09:33:00,62.0,53.0,29.92,SW,220,13.0,-999.0,72,-99.99,,,-99.99,,2013-06-16 15:33:00,
2013-06-16 09:43:00,62.0,53.0,29.92,SW,220,13.0,-999.0,72,-99.99,,,-99.99,,2013-06-16 15:43:00,
2013-06-16 09:53:00,63.0,51.0,29.92,West,263,15.0,-999.0,65,-99.99,,,-99.99,,2013-06-16 15:53:00,
2013-06-16 10:01:00,64.0,52.0,29.92,West,259,17.0,-999.0,64,-99.99,,,-99.99,,2013-06-16 16:01:00,
2013-06-16 10:12:00,64.0,52.0,29.92,West,259,17.0,-999.0,64,-99.99,,,-99.99,,2013-06-16 16:12:00,
2013-06-16 10:22:00,64.0,51.0,29.92,West,270,19.0,-999.0,62,-99.99,,,-99.99,,2013-06-16 16:22:00,
2013-06-16 10:33:00,64.0,51.0,29.92,West,262,18.0,-999.0,63,-99.99,,,-99.99,,2013-06-16 16:33:00,
2013-06-16 10:43:00,64.0,51.0,29.92,West,262,18.0,-999.0,63,-99.99,,,-99.99,,2013-06-16 16:43:00,
2013-06-16 10:53:00,64.0,51.0,29.92,WSW,238,19.0,-999.0,62,-99.99,,,-99.99,,2013-06-16 16:53:00,
2013-06-16 11:02:00,65.0,52.0,29.93,West,263,18.0,-999.0,63,-99.99,,,-99.99,,2013-06-16 17:02:00,
2013-06-16 11:12:00,65.0,52.0,29.93,West,263,18.0,-999.0,63,-99.99,,,-99.99,,2013-06-16 17:12:00,
2013-06-16 11:22:00,65.0,50.0,29.92,WSW,247,16.0,-999.0,58,-99.99,,,-99.99,,2013-06-16 17:22:00,
2013-06-16 11:34:00,66.0,51.0,29.92,SW,235,17.0,-999.0,58,-99.99,,,-99.99,,2013-06-16 17:34:00,
2013-06-16 11:43:00,66.0,51.0,29.92,SW,235,17.0,-999.0,58,-99.99,,,-99.99,,2013-06-16 17:43:00,
2013-06-16 11:53:00,66.0,52.0,29.93,WSW,248,16.0,-999.0,60,-99.99,,,-99.99,,2013-06-16 17:53:00,
2013-06-16 12:02:00,66.0,51.0,29.93,West,267,17.0,-999.0,58,-99.99,,,-99.99,,2013-06-16 18:02:00,
2013-06-16 12:12:00,66.0,51.0,29.93,West,267,17.0,-999.0,58,-99.99,,,-99.99,,2013-06-16 18:12:00,
2013-06-16 12:22:00,67.0,51.0,29.93,West,259,20.0,-999.0,56,-99.99,,,-99.99,,2013-06-16 18:22:00,
2013-06-16 12:33:00,68.0,53.0,29.93,WSW,244,18.0,-999.0,58,-99.99,,,-99.99,,2013-06-16 18:33:00,
2013-06-16 12:43:00,68.0,53.0,29.93,WSW,244,18.0,-999.0,58,-99.99,,,-99.99,,2013-06-16 18:43:00,
2013-06-16 12:52:00,68.0,51.0,29.92,West,265,20.0,-999.0,55,-99.99,,,-99.99,,2013-06-16 18:52:00,
2013-06-16 13:01:00,68.0,51.0,29.93,SW,226,19.0,-999.0,55,-99.99,,,-99.99,,2013-06-16 19:01:00,
2013-06-16 13:11:00,68.0,51.0,29.93,SW,226,19.0,-999.0,55,-99.99,,,-99.99,,2013-06-16 19:11:00,
2013-06-16 13:22:00,68.0,51.0,29.93,West,269,20.0,-999.0,54,-99.99,,,-99.99,,2013-06-16 19:22:00,
2013-06-16 13:33:00,69.0,52.0,29.93,West,273,18.0,-999.0,54,-99.99,,,-99.99,,2013-06-16 19:33:00,
2013-06-16 13:43:00,69.0,52.0,29.93,West,273,18.0,-999.0,54,-99.99,,,-99.99,,2013-06-16 19:43:00,
2013-06-16 13:53:00,69.0,52.0,29.93,West,273,18.0,-999.0,54,-99.99,,,-99.99,,2013-06-16 19:53:00,
2013-06-16 14:02:00,70.0,50.0,29.93,West,267,20.0,-999.0,49,-99.99,,,-99.99,,2013-06-16 20:02:00,
2013-06-16 14:11:00,70.0,50.0,29.93,West,267,20.0,-999.0,49,-99.99,,,-99.99,,2013-06-16 20:11:00,
2013-06-16 14:22:00,70.0,50.0,29.93,SW,227,19.0,-999.0,50,-99.99,,,-99.99,,2013-06-16 20:22:00,
2013-06-16 14:33:00,71.0,51.0,29.93,WSW,257,17.0,-999.0,50,-99.99,,,-99.99,,2013-06-16 20:33:00,
2013-06-16 14:42:00,71.0,51.0,29.93,WSW,257,17.0,-999.0,50,-99.99,,,-99.99,,2013-06-16 20:42:00,
2013-06-16 14:53:00,69.0,50.0,29.93,SW,216,20.0,-999.0,50,-99.99,,,-99.99,,2013-06-16 20:53:00,
2013-06-16 15:01:00,71.0,51.0,29.92,SW,227,23.0,-999.0,49,-99.99,,,-99.99,,2013-06-16 21:01:00,
2013-06-16 15:11:00,71.0,51.0,29.92,SW,227,23.0,-999.0,49,-99.99,,,-99.99,,2013-06-16 21:11:00,
2013-06-16 15:22:00,70.0,50.0,29.93,WSW,241,20.0,-999.0,49,-99.99,,,-99.99,,2013-06-16 21:22:00,
2013-06-16 15:32:00,70.0,50.0,29.93,SW,221,20.0,-999.0,49,-99.99,,,-99.99,,2013-06-16 21:32:00,
2013-06-16 15:42:00,70.0,50.0,29.93,SW,221,20.0,-999.0,49,-99.99,,,-99.99,,2013-06-16 21:42:00,
2013-06-16 15:53:00,69.0,52.0,29.93,WNW,292,21.0,-999.0,55,-99.99,,,-99.99,,2013-06-16 21:53:00,
2013-06-16 16:01:00,68.0,52.0,29.93,NW,306,20.0,-999.0,57,-99.99,,,-99.99,,2013-06-16 22:01:00,
2013-06-16 16:12:00,68.0,52.0,29.93,NW,306,20.0,-999.0,57,-99.99,,,-99.99,,2013-06-16 22:12:00,
2013-06-16 16:22:00,69.0,53.0,29.93,NW,305,24.0,-999.0,57,-99.99,,,-99.99,,2013-06-16 22:22:00,
2013-06-16 16:32:00,70.0,52.0,29.93,West,264,20.0,-999.0,53,-99.99,,,-99.99,,2013-06-16 22:32:00,
2013-06-16 16:42:00,70.0,52.0,29.93,West,264,20.0,-999.0,53,-99.99,,,-99.99,,2013-06-16 22:42:00,
2013-06-16 16:52:00,70.0,52.0,29.93,West,281,21.0,-999.0,52,-99.99,,,-99.99,,2013-06-16 22:52:00,
2013-06-16 17:01:00,69.0,52.0,29.93,West,273,21.0,-999.0,55,-99.99,,,-99.99,,2013-06-16 23:01:00,
2013-06-16 17:11:00,69.0,52.0,29.93,West,273,21.0,-999.0,55,-99.99,,,-99.99,,2013-06-16 23:11:00,
2013-06-16 17:22:00,69.0,51.0,29.93,West,267,23.0,-999.0,53,-99.99,,,-99.99,,2013-06-16 23:22:00,
2013-06-16 17:32:00,69.0,52.0,29.93,West,268,20.0,-999.0,54,-99.99,,,-99.99,,2013-06-16 23:32:00,
2013-06-16 17:42:00,69.0,52.0,29.93,West,268,20.0,-999.0,54,-99.99,,,-99.99,,2013-06-16 23:42:00,
2013-06-16 17:52:00,69.0,51.0,29.93,West,272,20.0,-999.0,53,-99.99,,,-99.99,,2013-06-16 23:52:00,
2013-06-16 18:02:00,69.0,52.0,29.93,WNW,292,20.0,-999.0,55,-99.99,,,-99.99,,2013-06-17 00:02:00,
2013-06-16 18:11:00,69.0,52.0,29.93,WNW,292,20.0,-999.0,55,-99.99,,,-99.99,,2013-06-17 00:11:00,
2013-06-16 18:22:00,69.0,51.0,29.93,West,272,22.0,-999.0,52,-99.99,,,-99.99,,2013-06-17 00:22:00,
2013-06-16 18:32:00,69.0,52.0,29.94,West,273,20.0,-999.0,54,-99.99,,,-99.99,,2013-06-17 00:32:00,
2013-06-16 18:43:00,69.0,52.0,29.94,West,273,20.0,-999.0,54,-99.99,,,-99.99,,2013-06-17 00:43:00,
2013-06-16 18:52:00,69.0,51.0,29.94,WNW,292,21.0,-999.0,53,-99.99,,,-99.99,,2013-06-17 00:52:00,
2013-06-16 19:02:00,68.0,50.0,29.95,WNW,284,20.0,-999.0,52,-99.99,,,-99.99,,2013-06-17 01:02:00,
2013-06-16 19:11:00,68.0,50.0,29.95,WNW,284,20.0,-999.0,52,-99.99,,,-99.99,,2013-06-17 01:11:00,
2013-06-16 19:22:00,68.0,50.0,29.95,WNW,290,21.0,-999.0,52,-99.99,,,-99.99,,2013-06-17 01:22:00,
2013-06-16 19:32:00,68.0,50.0,29.96,West,281,19.0,-999.0,53,-99.99,,,-99.99,,2013-06-17 01:32:00,
2013-06-16 19:43:00,68.0,50.0,29.96,West,281,19.0,-999.0,53,-99.99,,,-99.99,,2013-06-17 01:43:00,
2013-06-16 19:53:00,67.0,49.0,29.96,WNW,296,16.0,-999.0,53,-99.99,,,-99.99,,2013-06-17 01:53:00,
2013-06-16 20:02:00,67.0,51.0,29.96,WNW,290,13.0,-999.0,56,-99.99,,,-99.99,,2013-06-17 02:02:00,
2013-06-16 20:12:00,67.0,51.0,29.96,WNW,290,13.0,-999.0,56,-99.99,,,-99.99,,2013-06-17 02:12:00,
2013-06-16 20:22:00,66.0,51.0,29.97,NW,306,12.0,-999.0,59,-99.99,,,-99.99,,2013-06-17 02:22:00,
2013-06-16 20:34:00,65.0,52.0,29.97,NW,310,10.0,-999.0,62,-99.99,,,-99.99,,2013-06-17 02:34:00,
2013-06-16 20:43:00,65.0,52.0,29.97,NW,310,10.0,-999.0,62,-99.99,,,-99.99,,2013-06-17 02:43:00,
2013-06-16 20:53:00,65.0,53.0,29.97,NW,313,9.0,-999.0,66,-99.99,,,-99.99,,2013-06-17 02:53:00,
2013-06-16 21:02:00,63.0,52.0,29.98,NW,323,8.0,-999.0,68,-99.99,,,-99.99,,2013-06-17 03:02:00,
2013-06-16 21:12:00,63.0,52.0,29.98,NW,323,8.0,-999.0,68,-99.99,,,-99.99,,2013-06-17 03:12:00,
2013-06-16 21:22:00,62.0,52.0,29.98,NW,323,7.0,-999.0,70,-99.99,,,-99.99,,2013-06-17 03:22:00,
2013-06-16 21:33:00,60.0,52.0,29.98,NW,319,9.0,-999.0,74,-99.99,,,-99.99,,2013-06-17 03:33:00,
2013-06-16 21:44:00,60.0,52.0,29.98,NW,319,9.0,-999.0,74,-99.99,,,-99.99,,2013-06-17 03:44:00,
2013-06-16 21:54:00,59.0,51.0,29.99,NW,313,10.0,-999.0,76,-99.99,,,-99.99,,2013-06-17 03:54:00,
2013-06-16 22:02:00,58.0,51.0,30.00,NW,316,9.0,-999.0,78,-99.99,,,-99.99,,2013-06-17 04:02:00,
2013-06-16 22:12:00,58.0,51.0,30.00,NW,316,9.0,-999.0,78,-99.99,,,-99.99,,2013-06-17 04:12:00,
2013-06-16 22:22:00,58.0,52.0,30.00,NW,316,6.0,-999.0,80,-99.99,,,-99.99,,2013-06-17 04:22:00,
2013-06-16 22:34:00,56.0,51.0,30.00,NNW,327,5.0,-999.0,82,-99.99,,,-99.99,,2013-06-17 04:34:00,
2013-06-16 22:42:00,56.0,51.0,30.00,NNW,327,5.0,-999.0,82,-99.99,,,-99.99,,2013-06-17 04:42:00,
2013-06-16 22:53:00,56.0,51.0,30.00,NNW,339,6.0,-999.0,83,-99.99,,,-99.99,,2013-06-17 04:53:00,
2013-06-16 23:02:00,55.0,50.0,30.01,NNW,348,5.0,-999.0,82,-99.99,,,-99.99,,2013-06-17 05:02:00,
2013-06-16 23:12:00,55.0,50.0,30.01,NNW,348,5.0,-999.0,82,-99.99,,,-99.99,,2013-06-17 05:12:00,
2013-06-16 23:22:00,55.0,50.0,30.01,WNW,295,1.0,-999.0,84,-99.99,,,-99.99,,2013-06-17 05:22:00,
2013-06-16 23:33:00,55.0,51.0,30.01,WNW,289,2.0,-999.0,86,-99.99,,,-99.99,,2013-06-17 05:33:00,
2013-06-16 23:44:00,55.0,51.0,30.01,WNW,289,2.0,-999.0,86,-99.99,,,-99.99,,2013-06-17 05:44:00,
2013-06-16 23:53:00,55.0,51.0,30.02,West,271,1.0,-999.0,87,-99.99,,,-99.99,,2013-06-17 05:53:00,